Starlink 31096

operational
NORAD ID: 58592 Int'l Des: 2023-200 Owner: SPXS Country: US Constellation: starlink
LEOCIRCULAR

Starlink 31096について

説明を読み込み中...

リアルタイム位置

3D地球を読み込み中...

次回通過

高度履歴

Altitude vs Time

uPlot chart will show altitude changes over time

軌道要素

1 58592U 23200D 26095.58336806 .00071229 00000-0 25811-2 0 9997
2 58592 43.0003 18.1501 0006945 214.1764 19.6542 15.27458895 5697
Epoch: Apr 5, 2026 • Age: 6 hours

現在のステータス

高度 480.3 km
速度 7.63 km/s
衛星直下点 -9.09°S, 70.88°E
打ち上げ日 Dec 19, 2023
運用期間 2.2 years
タイプ internet

技術仕様

分類 Payload
質量 730.00 kg
乾燥質量 700.00 kg
総質量 730.00 kg
長さ 0.30 m
直径 4.10 m
スパン 29.00 m
形状 Box + pan
製造者 SPXS
バスタイプ Starlink V2M
フェーズステータス In Orbit
所有者/国 SPXS/US

大規模コンステレーション

Loading constellations...